GFSGBSN_con_3kmhel_099.txt.gz
Helicity
157 130 97 83 78 74 71 71 73 74 74 64 51 41 31 22 17 15 13 13 10 11 13 20 25 41 24 37 94 18 161 40 36 62 73 68 53 66 84 85 90 91 101 81 40 69 88
142 110 90 86 80 78 66 60 68 72 72 55 44 31 18 16 12 9 9 20 27 31 31 33 43 68 55 66 57 58 64 75 57 90 62 82 119 72 70 91 99 63 54 76 51 55 72
127 91 83 79 77 65 60 56 69 69 61 41 28 16 11 5 23 31 23 20 16 15 14 14 51 101 116 134 105 88 92 86 117 106 94 69 70 117 120 86 68 99 138 83 128 79 78
120 126 109 84 68 60 61 60 64 59 45 30 17 8 17 31 33 20 10 8 2 9 18 28 92 97 219 124 85 4 40 65 82 91 106 112 110 115 134 76 76 133 115 176 116 72 69
108 98 87 82 75 59 56 54 54 47 28 15 19 29 28 29 24 14 2 -5 16 -1 28 41 60 110 84 103 -1 18 50 84 72 70 70 90 144 118 136 154 152 101 146 107 138 23 28
96 86 87 86 70 56 54 49 46 32 23 24 32 29 32 23 16 11 -5 33 -8 -12 21 -36 30 176 55 62 69 71 43 46 91 102 85 111 173 151 132 164 193 146 77 138 93 7 29
78 98 96 72 61 62 46 47 46 34 24 27 30 30 31 12 4 -20 -3 22 101 63 250 205 167 226 70 47 123 203 113 24 17 15 129 85 165 186 127 104 99 126 106 130 88 46 66
79 86 69 59 66 52 55 55 46 33 30 30 34 40 18 -5 -19 -76 -16 100 144 128 173 162 115 89 44 30 67 24 23 88 45 48 13 86 111 65 51 31 33 85 155 154 98 56 49
87 72 64 69 54 55 55 54 48 40 33 36 43 26 4 -11 -98 -73 26 115 112 129 221 163 72 146 103 42 29 13 46 85 57 36 21 42 51 28 25 39 63 90 101 141 274 148 141
74 80 79 64 55 60 60 55 52 39 38 45 36 14 -2 -9 -91 40 97 76 92 100 154 -4 71 89 21 8 4 12 -6 28 35 28 53 18 -3 -1 26 58 52 48 1 59 112 80 145
55 85 70 58 57 60 65 59 44 42 47 42 23 2 -6 -20 6 38 52 48 56 81 108 55 64 47 8 -12 -5 6 7 21 1 16 67 40 27 25 42 48 50 62 19 -8 38 81 63
86 46 43 60 71 64 65 53 43 51 47 29 11 2 -4 10 -9 78 35 9 -6 16 117 42 62 75 21 49 14 10 31 38 36 99 29 40 26 37 10 45 47 30 58 35 34 34 128
58 46 55 61 70 67 57 51 53 49 30 16 5 -5 -4 22 64 38 40 4 61 172 45 27 16 21 64 -21 48 9 11 15 34 61 -4 46 72 31 66 47 101 119 114 154 128 133 110
80 56 57 69 75 60 55 54 58 43 28 13 3 -20 69 64 44 52 27 -30 87 89 7 -4 29 88 19 57 268 139 -4 0 34 49 14 22 48 77 58 71 91 37 9 120 173 107 52
56 56 65 70 75 65 61 61 56 41 33 20 -22 46 47 79 46 36 -18 64 42 -6 62 72 120 72 166 370 177 117 46 4 24 59 49 35 96 40 -14 2 26 67 34 28 101 78 100
44 45 63 67 75 63 61 58 55 39 41 30 28 34 70 48 41 35 8 6 8 34 80 38 146 193 469 593 293 204 -22 4 17 75 48 69 76 16 12 7 5 14 39 53 106 201 196
55 53 51 74 69 77 65 59 56 42 41 21 19 5 113 39 31 27 32 41 -12 3 17 42 258 388 454 444 309 90 107 20 71 13 9 40 35 20 58 33 18 34 38 55 44 88 113
49 56 68 68 68 68 61 57 51 49 29 20 41 48 80 24 53 54 47 13 34 7 -29 0 120 178 230 323 201 118 133 183 162 124 28 54 45 -19 12 10 41 -8 27 14 41 35 60
42 49 68 73 66 66 61 51 47 54 59 55 46 80 63 25 69 51 18 11 -2 34 -11 -70 -5 48 153 120 131 160 219 256 318 147 94 100 41 29 36 51 10 69 14 31 58 57 50
50 43 64 63 52 60 54 48 44 52 58 52 61 75 91 46 59 27 20 17 5 -3 -24 -58 -65 -37 31 79 188 313 353 292 211 215 190 135 58 8 14 12 32 54 54 52 36 53 40
52 36 49 58 50 63 56 49 58 57 57 58 74 63 86 70 56 20 8 15 -3 32 -13 -26 -58 -36 -12 33 214 529 633 380 251 263 148 164 60 113 92 54 38 46 48 40 34 77 73
41 50 44 59 59 62 53 59 59 56 39 63 77 63 75 46 19 22 40 4 -6 47 19 4 0 2 -12 -43 77 463 610 412 215 276 176 399 206 26 118 95 109 101 73 61 65 51 49
59 47 45 55 57 61 60 56 53 39 9 63 49 65 70 45 37 39 46 -2 -19 21 -20 2 38 24 -5 22 68 107 103 144 256 295 322 285 227 189 104 92 52 94 130 86 66 113 139
54 43 42 51 50 51 47 54 53 33 7 39 48 63 87 72 50 45 21 -6 -7 18 18 16 10 28 69 96 96 33 31 44 26 31 10 379 267 167 112 75 81 87 112 113 94 127 147
52 47 45 38 38 53 47 45 45 22 6 18 43 63 83 87 47 43 39 33 8 5 7 18 5 24 50 83 44 -16 18 10 3 13 10 46 60 45 137 151 67 48 96 106 130 30 99
38 34 35 36 42 37 44 50 36 30 22 26 39 29 50 90 98 37 33 20 50 58 24 10 26 19 34 50 30 14 12 44 35 13 9 37 70 77 48 39 53 143 137 105 77 44 88
49 33 26 37 35 51 45 31 46 29 32 29 51 24 32 87 22 30 47 26 19 51 43 21 50 23 48 57 46 28 21 36 50 56 56 48 37 55 39 55 47 110 188 152 81 82 28
52 20 26 15 41 47 59 15 30 26 24 34 43 33 36 45 4 -11 0 3 20 29 58 42 62 25 39 65 56 41 46 46 39 34 48 50 39 44 31 37 54 138 62 89 73 54 59
8 6 10 23 46 48 50 29 33 33 29 36 32 -8 10 15 -4 -5 -30 36 -6 -11 31 39 41 43 45 51 45 38 50 44 36 23 61 32 56 38 55 58 47 38 57 62 72 63 80

GFSGBSN_con_3kmhel_102.txt.gz
Helicity
183 182 174 154 121 91 78 82 86 75 70 53 48 50 47 46 46 37 22 9 -3 -8 -14 -5 12 31 9 27 140 -8 194 162 105 49 45 41 57 77 72 64 52 76 76 61 48 44 69
189 184 177 143 115 91 81 86 78 59 48 44 43 41 50 53 47 30 9 -5 -7 -23 -16 -0 38 84 60 116 55 24 88 77 73 47 46 66 95 62 85 95 85 63 61 65 43 41 39
173 177 148 124 103 89 93 81 66 55 46 40 46 53 62 56 28 3 -11 -19 -8 -0 11 23 74 114 145 246 111 117 109 87 74 68 94 105 103 110 135 156 95 81 99 90 39 74 62
170 118 97 88 83 90 92 72 60 51 42 43 53 59 56 37 4 -6 -16 -3 1 15 12 34 108 122 274 195 127 14 56 104 88 59 46 61 120 173 167 106 152 158 87 148 104 85 43
233 109 76 73 72 84 78 57 52 44 44 50 51 50 40 9 -8 -4 -13 -3 14 8 -11 13 55 74 161 107 57 -61 -20 35 25 45 22 48 80 169 202 215 236 209 241 127 109 65 54
364 234 61 57 73 75 64 53 44 43 54 46 45 34 15 1 -4 -20 -11 7 32 -26 4 -31 23 65 109 94 26 67 34 4 40 47 83 47 100 164 214 272 314 229 183 154 119 28 58
400 388 47 46 64 65 58 54 44 52 42 36 31 19 9 -7 -18 -34 7 -32 -43 -36 210 139 123 228 152 60 94 144 102 114 102 88 138 71 96 221 190 172 170 122 105 64 62 143 98
460 377 61 48 63 68 46 62 56 50 39 35 23 10 -9 -10 -26 -45 -60 33 37 64 108 73 -21 -12 -31 -59 -86 -17 -2 5 27 63 36 55 25 67 55 59 86 95 66 55 72 157 200
481 313 43 33 62 38 66 51 50 42 32 24 14 -2 -8 -2 -30 -54 -31 86 68 110 156 -71 19 12 153 64 20 -25 -32 25 18 43 45 12 -28 -24 25 68 36 34 71 49 58 77 177
411 152 10 52 52 47 49 45 44 36 24 17 6 -0 4 11 -33 -26 60 54 84 77 80 30 96 102 41 40 17 44 -11 -1 10 63 36 -28 32 28 -23 42 8 20 2 18 41 53 38
311 38 62 59 25 54 42 38 42 29 19 15 8 8 8 -4 -21 -13 19 59 37 39 -92 108 42 106 47 31 -0 -23 -31 2 59 52 -11 -15 57 15 43 -0 41 33 22 31 19 6 -13
90 43 55 20 40 44 38 38 35 22 18 11 10 17 -3 9 -3 37 26 2 -5 -117 2 60 18 -21 -54 47 -22 -51 -12 -9 16 22 17 76 -8 15 9 16 16 42 144 117 80 26 65
40 43 40 40 56 37 34 36 28 21 17 12 11 2 -16 -7 17 1 -3 -26 -95 13 -37 16 -27 33 72 39 85 77 27 -9 60 2 -2 13 68 88 49 38 43 109 44 133 149 82 19
55 40 54 51 50 32 33 31 24 27 16 15 6 -24 40 18 24 3 -1 -58 -4 -7 -38 9 41 143 84 39 179 214 94 21 101 15 35 95 3 59 175 37 104 77 109 220 173 85 16
-15 31 44 48 43 38 34 31 32 28 26 24 -27 21 2 82 18 2 -4 39 73 -11 -14 76 89 79 269 290 109 132 56 92 19 47 -54 -27 -30 -23 58 76 87 23 88 75 54 65 51
64 68 50 52 46 40 37 35 38 28 38 32 30 25 72 50 21 9 4 33 -8 -19 -6 7 52 71 189 247 245 135 90 24 -14 -0 -15 33 53 26 51 74 109 61 6 47 35 71 92
24 40 40 31 35 42 39 39 36 39 40 32 14 20 104 33 31 26 42 54 -24 5 14 22 23 102 111 141 185 135 229 156 199 -8 -27 3 5 -19 78 68 9 65 41 9 40 56 87
18 34 29 26 32 43 41 39 42 54 53 13 40 51 64 19 36 41 53 19 10 1 14 -29 -12 -29 99 100 58 154 291 173 344 96 -9 -23 -13 7 -1 60 52 29 54 17 79 103 -50
53 55 35 30 29 34 32 40 50 65 70 40 56 76 43 31 57 64 59 41 21 9 10 43 -87 -46 -24 8 -15 118 470 349 268 63 104 123 11 8 24 48 10 59 28 52 30 45 71
43 43 26 34 31 34 38 40 54 57 74 68 65 60 64 35 62 55 65 69 34 15 12 29 -26 -55 -67 -57 18 68 427 245 132 167 150 74 27 15 33 72 46 -4 -0 17 69 22 137
38 29 24 31 40 33 36 40 55 70 97 80 68 40 61 57 57 51 51 50 36 36 8 -2 31 12 -41 -46 65 200 492 351 159 188 48 -11 -10 65 51 62 -4 5 20 25 76 93 51
33 23 34 42 43 40 43 46 64 90 110 77 63 67 44 25 42 45 82 65 26 15 8 34 63 46 -12 -53 -3 359 456 224 120 161 19 132 120 130 191 72 -0 86 134 67 55 114 77
26 33 25 32 42 34 41 55 64 82 95 72 59 53 44 41 45 56 96 47 6 -7 13 -2 56 51 8 21 15 133 118 70 245 88 120 303 105 107 191 61 90 250 137 93 185 224 207
23 15 37 28 39 42 53 64 79 54 62 86 82 66 62 46 46 92 70 37 24 6 -3 3 9 49 69 98 103 70 21 -34 27 92 102 263 285 161 69 145 143 106 66 95 121 185 184
23 33 30 34 35 51 50 59 52 37 51 83 69 65 58 44 58 72 66 45 19 19 38 29 20 11 43 127 30 -6 20 -15 -8 -26 7 49 291 198 145 83 58 109 172 269 84 91 187
37 27 30 35 33 43 45 50 35 47 56 61 60 45 60 57 123 65 76 63 78 49 35 49 19 24 22 99 40 15 20 29 44 3 18 18 50 87 99 44 50 80 159 170 176 46 106
29 31 34 37 33 47 44 41 43 54 47 61 51 44 52 58 103 98 113 58 33 41 34 66 41 42 36 74 70 40 34 60 48 46 12 56 49 79 74 29 30 164 179 123 94 76 68
22 31 32 37 44 47 44 36 41 37 44 62 57 37 60 59 48 58 30 25 18 30 33 43 67 39 51 79 67 62 59 59 61 62 65 52 96 51 83 53 29 163 50 82 67 50 64
32 29 35 29 32 40 59 40 22 25 33 53 59 24 45 45 8 25 7 -22 -3 -16 7 25 60 52 52 63 57 61 66 66 66 25 53 48 40 30 58 44 37 42 46 50 58 63 68

GFSGBSN_con_3kmhel_105.txt.gz
Helicity
203 176 164 139 126 105 98 81 83 81 75 66 46 38 25 17 18 17 19 9 -14 -7 5 3 10 34 56 58 193 117 105 156 182 169 133 102 97 98 75 149 95 110 55 46 51 75 100
290 260 236 185 148 106 84 76 70 71 69 59 36 39 28 25 25 21 13 11 -1 2 -5 -10 10 52 87 175 85 36 183 198 155 122 95 105 133 104 138 126 115 144 96 73 51 73 90
320 315 264 233 207 146 75 67 61 59 60 51 42 38 38 31 25 23 23 15 4 -6 -22 -13 23 70 172 340 111 83 42 100 156 153 200 166 164 188 242 213 174 150 148 131 118 57 72
398 436 355 344 271 230 78 65 55 45 52 50 40 43 34 24 25 30 20 16 -6 -35 -14 -16 40 82 211 61 79 49 181 220 127 93 164 128 87 155 192 199 221 279 254 247 114 132 75
404 441 377 394 486 319 99 52 52 40 49 47 39 41 31 26 35 33 27 11 -18 -36 5 -4 75 131 83 94 139 81 76 194 129 107 64 60 83 138 109 223 274 257 322 317 212 148 168
472 481 377 424 487 413 117 41 52 42 45 40 37 32 22 24 23 3 12 13 -46 21 43 65 87 153 73 105 75 82 1 -10 60 97 152 121 58 129 169 202 361 268 324 216 224 206 117
559 505 436 444 480 351 163 24 39 39 36 31 37 35 23 15 -10 -26 23 -102 -95 11 64 105 57 -24 -2 78 100 98 100 101 119 149 179 123 155 171 129 94 94 116 196 119 117 84 121
600 567 547 363 284 306 85 20 28 41 31 50 42 33 15 15 -24 -58 -11 -46 15 95 42 32 -18 -76 -103 -41 71 -33 77 45 -8 55 36 32 73 59 88 109 75 85 120 121 77 3 75
580 641 472 292 328 135 33 21 43 39 59 41 33 20 20 14 -38 -26 24 51 97 118 47 25 -63 27 149 175 135 109 37 30 36 -37 43 43 76 5 16 12 -37 3 75 72 37 -18 9
664 503 429 333 237 63 38 5 12 43 38 33 23 22 20 28 4 11 52 48 48 74 107 96 87 105 68 117 117 90 7 -36 1 -58 -28 -24 28 37 19 -7 9 30 18 17 22 74 58
636 453 475 311 260 31 7 0 22 36 35 28 27 13 3 0 -8 25 37 17 19 84 111 48 64 80 54 104 105 126 31 13 69 44 50 119 -8 50 37 79 12 -7 33 30 92 129 120
542 440 338 288 123 3 -2 2 29 33 26 38 20 16 22 17 52 24 8 19 56 129 24 34 25 76 50 70 133 115 58 48 86 3 27 48 80 25 -8 -6 9 67 10 40 153 156 87
494 350 284 188 4 6 -15 17 30 27 40 33 16 17 -23 -27 8 -18 -4 67 143 88 22 58 84 113 53 121 32 49 3 80 70 25 -21 20 32 66 -37 -49 -42 40 99 46 85 117 72
392 300 209 24 22 -8 4 20 25 40 47 35 39 11 -34 -2 51 -3 31 94 121 82 73 13 62 74 117 60 56 107 20 50 76 58 99 39 -15 49 13 125 74 85 92 60 15 68 36
290 171 60 31 18 -13 36 29 40 48 52 49 56 5 8 26 19 -5 68 118 120 108 38 49 61 44 163 147 28 7 64 188 79 107 11 -74 -30 17 57 54 34 48 0 31 12 14 45
107 33 52 23 9 45 31 44 52 62 59 71 39 13 54 15 13 27 89 102 103 35 11 36 70 54 120 103 -3 24 17 42 117 125 90 40 142 27 70 89 103 -19 38 -41 9 -49 7
71 74 19 1 41 35 67 53 70 74 77 65 22 21 21 7 18 53 63 74 59 33 20 15 36 68 138 76 57 -37 52 88 115 115 77 117 99 -7 -12 48 53 95 70 45 -17 -96 124
93 8 27 24 52 68 65 68 90 90 96 57 51 39 2 0 52 49 58 52 34 36 17 37 20 56 119 29 21 8 10 -21 238 192 -19 34 17 13 10 3 31 122 1 21 -52 -6 -18
19 35 34 17 44 80 66 83 98 98 94 74 65 52 -4 26 63 50 55 85 65 54 22 33 77 56 -3 -92 -84 11 -8 95 86 107 47 15 -29 1 18 2 8 8 -5 4 -7 23 66
13 32 23 29 60 68 74 95 105 97 88 64 73 50 40 20 34 47 63 67 77 27 48 48 44 72 -44 -58 -26 -32 50 103 133 93 77 8 -49 -62 61 32 7 20 29 41 1 3 29
36 28 32 29 54 53 69 96 105 92 97 89 66 49 51 32 13 36 31 63 72 72 33 27 17 36 5 -48 -33 15 115 279 121 82 40 -35 -71 -17 -35 43 58 19 8 78 90 -6 38
19 44 44 47 71 62 56 88 99 108 132 90 66 90 43 41 41 27 38 53 61 58 58 40 14 20 32 -61 -100 79 212 89 -2 94 21 21 52 156 66 59 175 41 159 223 213 214 103
16 35 51 54 66 51 61 95 98 117 157 121 94 59 58 37 11 34 64 70 42 44 35 14 5 6 35 32 6 80 159 26 37 58 42 4 61 188 123 44 33 170 120 180 267 244 72
43 33 53 50 51 54 54 91 100 117 146 145 103 80 84 72 62 84 67 52 54 58 81 47 14 -20 19 52 70 36 10 -1 36 22 31 105 123 106 91 52 145 91 139 92 100 191 164
44 43 44 43 37 44 50 85 79 86 117 121 113 102 87 92 149 157 84 69 73 108 115 100 67 -17 2 39 11 11 -10 12 -21 -44 4 143 199 95 93 147 38 92 116 117 34 100 129
60 49 52 33 28 46 52 61 63 52 88 132 101 82 86 119 156 131 96 136 92 76 59 119 54 26 3 7 46 50 24 34 32 25 5 43 44 53 110 94 75 58 198 127 -29 37 84
35 14 19 29 35 51 50 55 46 57 94 103 77 86 67 90 129 151 104 76 65 76 60 37 20 34 40 67 53 62 49 66 43 48 37 34 55 91 127 35 25 158 187 112 34 28 42
29 28 28 37 42 54 46 42 48 58 86 111 73 67 61 59 60 71 73 62 40 56 60 17 42 50 93 84 29 54 70 73 56 10 28 17 52 41 28 22 26 140 44 69 40 49 60
18 31 33 41 47 46 37 38 54 60 79 102 62 40 30 40 22 24 17 24 11 31 28 15 31 45 51 64 59 34 82 97 106 44 40 39 30 35 43 28 27 28 19 30 50 48 57

GFSGBSN_con_3kmhel_111.txt.gz
Helicity
214 185 178 156 203 169 166 144 143 136 125 122 119 100 86 76 77 79 67 56 47 43 29 17 8 14 -3 50 -7 145 184 184 132 133 173 201 188 198 216 215 199 203 162 124 118 105 96
248 252 204 192 234 202 165 139 148 132 132 174 124 107 106 92 79 77 61 59 45 36 16 20 21 42 15 40 116 113 118 76 129 132 162 154 170 193 239 241 267 245 241 202 165 167 139
293 300 246 242 255 234 167 160 148 150 153 163 188 140 121 95 78 67 58 58 46 27 19 32 35 61 54 -4 83 62 71 65 71 93 117 159 186 235 266 303 230 234 375 284 205 154 162
355 331 290 278 328 296 198 192 157 171 163 184 187 212 88 93 101 80 63 43 41 35 39 28 52 56 2 88 32 16 60 80 61 44 69 62 93 156 224 181 244 267 281 319 191 195 217
350 388 346 333 349 310 241 225 227 175 181 179 175 205 76 89 90 63 53 57 52 41 48 64 66 56 49 41 32 38 29 47 50 62 79 43 75 144 194 164 187 257 229 200 183 74 39
336 366 398 374 358 354 309 248 244 216 229 174 171 142 86 111 87 57 53 41 21 71 65 14 69 64 55 58 45 72 64 76 77 87 82 97 168 203 194 283 206 261 253 199 211 121 78
321 322 398 427 417 425 326 271 252 240 273 182 96 96 95 121 94 48 35 25 60 46 106 56 72 24 45 29 56 98 126 86 86 112 80 97 205 181 112 183 120 104 89 73 65 14 59
422 377 406 467 498 492 364 313 316 273 275 112 92 104 113 132 93 73 23 22 -42 30 33 74 48 31 1 36 66 90 41 50 79 105 116 197 183 137 126 105 102 89 120 124 67 120 16
332 394 449 553 546 494 430 356 347 265 238 100 81 92 126 116 113 58 33 -31 28 29 34 62 55 5 -12 97 58 -8 44 42 66 40 102 150 177 126 136 120 102 136 118 104 102 44 -15
274 544 444 587 625 561 534 425 449 224 218 148 40 90 117 119 95 70 40 52 33 32 79 73 34 22 31 49 37 21 90 77 93 77 90 84 72 75 77 97 80 98 105 115 48 38 -10
276 485 571 701 704 714 608 469 415 253 272 90 46 99 90 102 103 71 77 63 34 44 120 63 40 39 24 28 44 58 139 79 102 68 123 147 119 146 93 102 59 88 53 91 129 84 22
327 522 712 863 799 634 698 567 418 285 193 61 67 65 93 150 103 93 73 60 45 59 79 95 59 54 75 42 63 105 89 77 98 54 118 194 172 95 89 73 73 80 41 94 113 30 3
420 576 896 938 781 723 658 440 475 307 249 11 61 89 87 91 82 86 69 61 43 59 54 78 70 69 50 43 39 69 70 74 -7 -0 70 55 61 60 102 52 26 15 -13 -14 38 129 133
498 633 954 1164 934 844 634 428 394 322 159 20 78 65 99 112 69 93 78 60 43 67 53 77 53 66 66 11 15 74 77 74 17 9 67 71 124 80 104 88 -23 4 -1 45 -42 31 21
682 914 1033 1158 1060 789 620 479 451 361 55 56 60 118 158 107 49 86 75 62 42 44 43 49 60 95 75 62 10 14 63 47 2 -14 29 78 127 95 39 101 5 -19 -13 36 58 176 16
833 1062 1271 1318 941 748 567 546 470 163 25 51 108 159 157 85 87 102 88 55 53 66 59 51 61 104 93 53 8 4 35 35 -25 -18 20 100 101 21 50 2 -55 -21 -37 -26 16 -24 40
1131 1306 1339 1155 848 679 656 433 259 62 25 64 199 175 135 76 103 122 69 61 68 70 52 46 59 94 75 48 42 28 20 43 -9 48 52 50 62 -8 -63 -52 -43 -21 -47 -49 -35 -53 -49
1399 1473 1137 1092 746 677 539 258 98 52 82 176 232 191 149 95 117 119 80 67 79 64 49 54 79 69 77 80 27 54 85 83 7 21 1 33 14 3 15 -1 -23 -47 -10 -35 -27 -19 -15
1406 1266 1239 826 621 444 334 81 75 55 102 217 256 229 186 124 89 120 101 97 78 60 48 59 59 62 76 77 47 87 80 96 5 -8 -32 -3 -84 -66 -42 -70 -29 -26 -19 -12 -73 -18 27
1154 948 459 432 500 346 86 75 48 65 106 293 258 171 193 144 102 113 112 95 73 55 48 54 52 73 48 81 68 57 101 27 65 -26 -4 -4 -20 -6 60 93 -0 5 30 1 -23 13 173
334 420 405 424 291 123 89 43 57 120 173 270 215 131 122 121 109 124 114 76 81 66 53 74 78 63 47 48 67 55 140 51 33 -15 25 -6 16 94 156 216 268 272 158 41 39 94 128
255 334 369 330 257 93 21 83 127 153 168 220 145 120 164 127 129 130 93 51 58 55 62 72 69 27 49 63 56 57 67 30 -9 22 30 6 131 48 112 130 471 389 447 446 326 94 25
283 348 284 136 99 -1 107 94 123 167 196 166 163 162 145 171 126 99 46 50 42 58 65 94 53 38 47 41 44 101 141 102 174 118 101 49 77 22 128 104 248 352 250 166 136 155 56
84 60 88 102 64 89 88 123 161 144 156 147 174 165 149 154 112 55 57 62 81 74 77 62 43 40 15 -14 -3 28 22 -9 -18 -24 34 40 81 38 71 94 108 11 13 38 83 105 101
69 43 30 46 82 49 100 144 160 176 134 175 159 147 141 173 133 112 85 91 87 85 63 47 30 10 -4 33 18 21 24 36 5 -0 13 12 13 49 41 95 63 4 9 10 52 75 71
43 33 46 44 63 80 131 134 179 181 151 207 186 125 150 183 137 146 117 66 75 69 56 48 29 35 35 58 42 80 50 36 39 48 3 35 -17 65 65 117 105 65 90 -18 -38 47 47
40 65 65 63 90 92 119 152 155 146 125 139 164 162 148 151 141 100 88 66 55 55 63 45 54 76 50 79 97 75 32 35 57 59 53 87 61 129 148 87 73 93 57 5 16 17 15
44 56 39 71 89 94 99 135 146 137 110 120 160 187 121 106 121 114 75 60 53 55 61 39 66 63 88 102 75 58 60 55 34 45 58 87 125 140 113 110 87 108 34 40 16 9 13
53 43 39 51 88 108 102 128 136 128 122 113 138 161 136 115 63 72 64 32 47 29 45 33 55 50 55 70 62 62 83 79 56 53 74 79 39 73 66 36 23 33 47 47 39 44 6

GFSGBSN_con_3kmhel_114.txt.gz
Helicity
152 150 155 167 169 155 108 91 105 111 99 70 40 62 62 79 87 92 89 97 78 56 37 25 24 14 -23 56 23 51 113 106 76 92 105 113 117 98 129 164 165 150 138 113 177 213 162
204 188 180 176 173 167 159 114 124 125 99 77 71 76 55 70 111 107 86 99 85 63 33 22 22 8 -2 51 44 85 125 103 81 78 80 89 93 105 140 153 191 196 133 116 128 145 83
211 218 218 215 206 192 182 159 168 138 97 91 83 86 89 84 101 97 74 64 70 62 31 3 15 29 59 4 108 71 43 40 51 61 62 63 96 149 154 174 125 120 153 161 160 51 24
256 242 236 238 247 208 217 205 200 155 120 101 100 106 115 102 133 73 61 72 84 55 22 27 40 55 16 63 49 38 40 76 53 41 81 37 91 134 175 123 182 202 208 127 55 115 139
255 239 259 267 281 265 256 241 213 172 133 119 124 104 147 130 138 65 58 88 84 34 48 70 72 38 12 42 51 51 79 71 62 45 65 67 141 116 119 155 213 229 177 148 84 42 67
214 112 260 274 328 324 301 286 236 199 160 145 142 140 136 152 115 63 78 66 59 98 65 33 63 73 66 60 69 86 67 56 53 48 66 98 162 131 261 249 321 250 245 194 117 14 60
246 127 288 268 263 307 278 295 292 232 207 179 152 136 165 137 104 92 84 75 114 127 80 94 87 14 47 52 51 29 35 58 36 68 118 78 136 169 167 163 113 142 159 125 79 44 63
147 180 196 248 234 296 297 337 349 305 244 202 188 188 193 118 127 121 39 94 99 89 125 48 38 74 55 59 57 55 31 53 79 105 90 95 88 -23 30 93 128 157 137 113 64 56 70
145 138 137 121 277 306 382 342 408 382 268 269 247 238 192 135 139 122 87 64 17 19 31 34 81 97 59 82 28 30 45 45 57 91 68 88 -4 19 2 16 52 118 139 93 114 94 111
85 113 134 96 233 357 428 375 489 401 320 322 335 211 285 158 150 96 124 48 5 -17 129 86 107 97 35 32 24 19 54 35 43 82 32 2 28 39 44 60 105 97 157 126 108 115 143
63 99 115 139 167 434 549 473 540 467 413 391 317 244 356 121 121 123 84 35 8 44 217 79 89 40 43 6 15 35 70 51 58 75 108 42 83 50 59 39 117 122 15 39 62 128 131
51 78 129 148 204 406 506 556 624 524 386 322 316 253 279 140 133 106 84 36 52 171 244 95 91 67 66 38 21 55 71 55 55 61 71 142 132 101 106 90 97 26 44 74 105 155 292
46 79 118 121 175 370 548 792 748 540 441 316 328 281 218 133 144 96 74 75 151 235 84 103 104 61 48 58 42 81 70 35 50 65 64 74 6 35 95 92 -15 3 19 17 86 127 99
62 86 113 126 172 504 717 827 789 629 455 400 257 266 200 141 142 103 106 138 224 106 85 94 76 77 73 77 57 80 78 133 67 52 42 60 23 21 126 115 -25 42 34 171 245 369 360
48 98 107 168 292 759 787 749 851 647 476 483 427 338 148 138 111 124 128 230 140 40 59 64 65 85 88 68 77 92 59 36 65 17 26 34 75 110 74 2 -53 -63 66 8 122 100 152
169 136 126 233 437 944 921 888 777 576 524 534 480 386 251 122 112 173 181 128 56 84 66 64 62 78 69 62 101 98 60 13 39 32 38 35 36 70 45 61 43 -62 -86 -59 -53 -25 -15
77 94 181 249 712 1107 1065 926 802 618 497 433 528 467 206 132 185 187 225 81 100 78 69 61 56 58 51 56 94 85 20 2 -13 19 52 35 75 84 -36 102 -79 -64 -49 -42 -21 -41 3
77 212 286 612 957 1227 1104 927 931 592 502 442 463 524 199 174 226 188 177 74 115 92 94 77 67 50 46 74 77 61 29 -21 47 11 55 54 45 59 151 81 69 63 -59 -56 -14 -1 60
200 272 625 1096 1063 1178 1020 918 855 642 704 724 629 554 263 253 305 253 151 143 125 111 86 61 44 46 57 64 80 64 25 60 40 27 23 14 41 28 -9 21 43 8 -9 -1 -15 99 12
344 718 1004 1023 1073 1110 1011 888 721 509 363 401 699 651 330 204 209 168 181 146 122 109 95 63 65 68 52 59 60 63 46 45 82 52 22 -14 24 -12 -20 10 33 9 -4 36 48 54 169
765 874 924 994 1123 1115 1010 616 295 185 209 538 519 471 243 305 185 137 183 124 122 99 80 63 66 61 55 57 87 91 59 57 58 33 16 -5 7 -19 -39 127 146 296 227 126 88 56 78
1064 1098 1175 1242 1212 1019 688 384 362 149 252 494 537 432 262 181 201 193 155 95 107 103 90 71 58 53 44 60 73 98 74 65 47 36 19 9 -17 1 11 48 207 343 445 300 110 -3 -3
611 689 809 901 794 418 396 371 245 145 259 386 262 240 198 178 183 170 134 103 84 87 104 64 68 49 37 40 32 59 110 122 98 54 37 19 24 -6 6 71 157 167 264 135 114 140 -8
146 146 208 327 421 426 331 170 101 112 231 156 182 232 165 200 139 132 123 122 89 62 74 57 38 39 32 17 -0 32 36 28 27 1 57 8 64 19 38 8 83 78 39 46 48 95 52
193 265 313 346 321 210 134 98 123 77 119 197 181 179 144 181 147 140 122 124 118 112 82 51 24 13 22 38 66 85 110 68 31 36 32 -38 10 34 31 67 55 78 34 53 62 56 46
204 180 171 126 83 77 121 104 78 89 134 180 240 191 162 205 129 130 139 105 99 85 73 41 18 33 50 74 91 139 151 105 77 51 9 -6 -3 39 70 89 68 64 45 -11 -0 59 43
115 123 155 86 94 136 123 133 166 156 128 166 200 190 157 143 177 163 126 85 67 72 64 47 41 54 59 104 126 148 122 72 79 67 65 22 11 93 176 120 98 101 77 24 38 37 52
115 97 73 106 140 147 162 164 121 151 141 158 202 199 129 110 169 146 107 76 77 54 59 36 68 74 100 124 124 120 118 91 61 57 62 32 39 70 92 167 168 113 64 44 36 36 23
80 78 97 88 97 157 144 142 136 129 137 165 195 213 187 135 128 141 120 77 56 23 45 45 69 84 76 106 92 88 93 63 66 61 46 47 38 73 83 70 38 59 80 70 47 36 11

GFSGBSN_con_3kmhel_117.txt.gz
Helicity
145 137 109 112 117 128 121 96 96 104 66 65 53 39 29 31 16 39 50 48 46 40 21 19 19 9 -10 40 35 68 97 63 65 79 64 48 63 66 97 118 97 100 99 106 150 154 138
173 146 136 142 138 131 142 134 117 117 98 86 62 57 47 29 23 26 43 55 50 37 25 20 20 7 20 45 66 72 93 82 83 67 67 59 69 78 94 89 84 99 78 94 104 118 102
193 161 173 160 165 160 139 141 148 155 129 87 87 71 67 57 40 41 50 59 37 31 21 28 35 35 56 52 104 104 64 65 41 46 68 67 94 68 76 63 66 73 67 88 87 57 38
186 155 134 219 197 196 188 173 157 163 150 118 102 107 88 79 58 55 52 62 40 31 45 55 64 58 49 104 100 67 46 45 46 54 58 67 92 87 90 100 109 91 69 29 76 114 -12
201 143 165 250 222 230 191 198 202 180 175 154 125 120 117 81 75 69 78 58 38 67 62 65 75 65 104 59 73 62 76 61 60 68 51 54 78 87 74 55 57 31 30 25 35 40 49
192 195 156 243 312 198 212 202 212 211 211 200 156 130 120 107 108 76 90 54 97 101 75 63 93 99 70 98 83 77 47 53 59 66 89 83 83 64 82 70 78 79 46 38 4 96 99
162 189 219 258 188 172 158 212 223 271 257 231 153 136 145 136 146 120 128 79 101 103 91 84 117 68 60 83 72 81 51 65 55 86 103 94 88 62 48 11 -13 -0 8 -25 2 -18 45
92 114 165 197 174 136 127 222 212 276 288 277 185 167 145 167 197 167 145 138 118 94 96 85 94 83 75 90 63 71 36 65 73 73 85 101 95 34 3 -13 -8 -33 -7 -37 27 -20 41
92 85 78 126 164 195 126 275 250 256 298 264 264 202 177 234 270 292 205 122 73 62 103 114 124 108 100 79 59 58 36 60 68 100 104 119 99 76 24 -17 45 2 23 -4 39 19 61
70 89 91 92 94 120 173 187 164 295 381 367 261 246 173 232 227 274 238 75 46 54 137 139 159 140 110 77 68 16 29 48 69 76 86 48 54 71 45 26 76 57 70 83 78 104 149
64 91 89 75 75 93 109 122 183 398 470 397 370 256 260 240 283 252 139 91 78 55 189 104 124 77 81 58 40 37 23 55 64 72 109 98 108 66 14 40 109 87 151 90 96 159 122
62 81 77 68 80 106 115 117 195 471 463 560 406 247 339 325 326 207 140 104 83 218 217 168 127 112 98 54 55 57 47 30 52 84 83 123 73 45 52 57 99 74 71 22 73 31 240
64 75 85 84 84 113 132 120 187 510 634 636 494 330 295 297 238 187 113 159 315 315 198 207 192 137 99 71 49 66 50 76 96 128 136 73 107 37 39 57 86 50 31 12 21 46 57
61 76 86 86 71 94 138 137 325 619 692 690 535 402 354 324 301 159 156 309 275 278 329 179 129 91 71 88 69 66 40 49 108 108 100 127 120 54 69 72 49 44 32 68 4 -13 -9
54 67 109 85 68 74 118 154 285 660 880 839 575 574 471 419 311 190 299 308 290 271 214 187 163 81 86 99 74 72 48 65 78 69 147 138 58 61 13 20 80 71 56 86 -53 25 -8
53 78 95 49 44 105 175 129 433 695 837 830 754 642 460 421 182 242 376 289 284 207 165 134 127 76 67 71 73 78 59 66 64 49 38 73 72 17 50 48 63 124 75 5 137 -23 10
58 37 74 77 66 118 166 101 446 908 692 684 833 685 480 397 184 327 358 329 281 152 136 116 104 116 83 70 66 71 85 70 38 63 52 52 88 47 35 63 65 45 10 4 -46 113 -14
-23 -70 -11 48 118 157 202 120 690 948 999 933 930 561 369 371 534 361 259 261 190 174 149 115 104 109 85 67 67 76 74 49 49 42 43 59 62 93 69 73 34 56 -6 44 -8 9 12
-109 12 120 152 129 187 211 378 1054 1052 1101 914 908 827 367 436 489 342 310 298 238 189 136 122 119 98 93 63 77 71 76 23 20 33 38 30 68 75 55 22 9 -0 31 2 60 48 -8
141 75 3 61 172 227 331 839 1161 897 686 760 850 739 444 439 436 314 359 317 285 167 153 136 119 106 83 65 39 74 55 52 51 34 45 13 46 60 -46 -33 19 63 113 63 71 53 134
12 -11 22 161 144 227 729 993 995 949 641 824 891 543 651 429 365 375 349 283 230 185 133 131 120 82 64 68 62 39 37 57 35 37 35 38 45 26 28 105 53 162 267 157 109 36 40
85 134 64 45 258 682 921 1109 952 899 784 825 686 512 572 287 471 461 361 246 193 167 146 106 85 75 59 55 46 49 37 36 63 38 39 21 30 10 -5 47 77 142 191 119 117 77 64
480 512 554 613 791 930 1138 940 820 831 938 991 931 576 681 401 436 396 315 192 130 159 167 80 88 82 55 21 15 19 34 58 40 34 32 26 13 16 -0 37 49 82 139 69 77 75 39
846 805 865 801 728 849 851 770 844 863 931 876 658 521 569 404 309 218 150 158 135 146 107 102 86 68 40 29 8 21 25 31 29 7 15 20 -5 13 15 48 29 22 12 20 59 78 30
291 782 760 801 789 726 839 809 694 730 640 387 305 406 486 337 145 165 129 151 196 153 129 86 73 53 33 29 56 71 97 103 97 39 34 17 8 17 40 61 67 74 52 32 39 47 64
229 144 124 444 674 687 540 536 503 380 149 298 269 52 178 325 145 162 203 158 185 142 124 80 68 47 47 55 75 117 151 142 156 107 49 19 14 24 64 56 68 112 81 34 12 60 72
194 294 431 518 501 499 488 490 559 246 136 66 127 185 183 216 251 180 172 154 117 118 89 71 62 55 57 77 114 141 171 118 163 130 79 42 22 44 67 98 80 148 109 26 29 45 39
123 190 240 258 211 164 109 66 27 -7 67 144 169 222 132 209 268 164 134 107 117 91 72 51 67 64 77 101 114 134 154 143 133 98 86 75 34 39 45 100 112 175 89 72 53 48 23
164 156 260 217 123 60 23 -14 19 89 101 124 194 289 257 253 225 221 184 127 80 45 63 60 46 60 60 96 85 109 133 114 108 104 61 73 50 25 72 77 86 95 116 101 43 41 25

GFSGBSN_con_3kmhel_123.txt.gz
Helicity
122 128 92 97 95 98 88 84 86 83 86 81 78 56 42 32 24 17 7 -4 -13 -12 -18 2 32 31 18 32 109 127 38 18 -4 32 53 52 37 57 46 90 83 32 56 102 71 65 49
121 180 148 164 138 126 104 71 102 88 105 98 82 72 45 46 28 28 14 1 -3 -2 -7 -12 1 9 21 46 131 98 59 27 45 39 44 53 80 74 50 61 67 122 76 43 33 28 24
247 122 164 171 162 130 97 86 102 114 123 103 94 85 57 52 40 35 30 23 16 8 2 -4 6 6 36 123 89 84 57 34 35 38 47 62 52 43 100 34 91 49 30 35 16 87 60
210 223 228 120 136 156 110 87 106 134 127 117 108 99 82 61 58 51 44 38 34 13 14 35 18 8 55 134 86 51 35 10 45 32 36 50 41 31 38 63 28 1 -6 -1 78 94 123
198 205 207 192 197 103 149 151 139 105 150 136 129 119 101 81 63 59 58 48 29 34 29 35 32 27 79 122 61 66 50 72 72 41 39 47 32 16 44 -1 1 86 42 102 94 60 130
144 175 166 169 174 169 159 131 181 121 154 198 135 166 114 96 83 70 61 39 41 52 10 28 40 47 96 72 147 100 90 68 70 41 29 28 23 17 17 8 59 103 77 70 67 82 55
151 123 127 147 176 164 145 131 50 118 156 230 155 143 143 65 93 78 56 25 4 -29 12 34 121 112 126 189 117 63 115 66 38 35 26 82 30 31 107 180 109 68 51 32 54 59 82
128 135 134 117 119 127 143 157 173 105 206 219 173 172 191 83 57 57 72 90 187 117 104 39 59 108 184 175 124 79 79 92 103 69 103 64 25 113 124 102 77 50 41 25 57 78 92
103 106 99 96 95 94 98 122 140 158 122 210 150 157 169 113 57 86 80 87 131 148 110 66 86 65 134 140 123 167 67 127 93 77 57 47 111 140 86 62 57 37 62 63 69 53 50
92 97 92 84 83 76 81 98 118 131 102 119 195 211 214 232 143 131 111 44 120 190 162 100 131 111 210 151 156 161 111 109 100 103 75 51 92 82 68 43 69 55 78 74 38 77 98
78 82 78 72 77 73 80 86 84 99 109 84 242 282 313 243 206 174 174 161 148 232 239 215 324 248 146 118 245 74 79 85 92 69 68 133 71 52 34 56 127 90 77 40 39 73 90
81 81 79 76 78 78 82 80 64 81 96 117 211 383 429 306 275 194 173 267 339 96 265 238 175 122 136 106 122 173 93 56 82 57 29 -25 52 55 41 120 73 37 37 19 31 71 66
83 85 87 84 82 82 74 81 80 100 115 114 266 454 483 287 146 160 160 341 226 176 141 131 100 133 77 153 134 121 109 89 72 91 45 32 19 77 61 66 69 53 42 90 80 143 98
88 83 87 85 80 84 89 76 92 99 126 128 287 395 347 321 173 288 329 279 256 103 159 116 144 127 110 206 157 148 140 106 67 64 99 65 54 87 93 73 103 92 74 85 138 86 36
96 93 94 94 91 101 99 96 81 90 135 176 311 438 371 342 286 314 375 260 249 142 178 220 174 174 139 156 223 125 98 103 114 63 84 89 79 126 104 55 58 164 67 131 89 70 95
103 103 94 104 105 105 121 113 98 87 122 213 489 476 336 342 373 360 271 156 107 215 379 281 150 114 49 95 174 140 109 90 111 76 65 88 68 71 136 53 34 50 59 57 114 124 57
122 115 115 113 116 110 117 108 100 96 128 228 431 363 250 312 352 401 318 168 144 187 142 156 30 133 174 165 90 124 183 142 102 61 45 60 61 92 59 88 88 128 70 70 62 91 100
108 119 119 110 113 113 108 94 109 117 135 253 421 344 208 287 362 351 245 257 289 191 179 302 307 288 216 199 173 235 132 104 79 67 44 60 40 46 63 137 77 68 105 31 87 70 80
102 94 87 80 87 102 102 93 93 107 248 426 370 408 197 281 266 291 167 171 169 195 114 192 294 269 301 232 241 182 143 174 100 51 75 39 28 37 98 116 60 78 42 25 12 6 54
64 71 63 68 79 85 89 104 107 135 259 304 439 411 415 344 236 116 93 143 153 129 165 278 341 279 185 264 152 81 84 100 74 56 86 59 37 18 94 185 91 55 -5 36 64 136 143
77 59 59 57 78 75 86 105 133 145 270 357 467 374 336 338 265 272 141 145 183 327 315 281 340 243 212 351 126 84 68 89 63 59 49 43 51 44 16 70 54 34 -8 24 98 94 116
89 72 56 62 72 90 113 135 144 154 262 363 402 313 314 276 124 242 190 162 136 210 268 254 350 180 241 365 129 29 78 73 64 53 23 62 64 70 61 43 35 68 41 7 40 74 140
57 53 54 32 68 81 108 167 208 195 264 490 355 187 257 257 175 159 102 135 115 146 105 193 185 231 210 144 45 131 90 120 104 44 40 67 65 62 72 60 42 74 89 81 67 87 56
83 47 29 26 38 71 150 226 284 362 328 573 478 363 499 348 208 180 107 120 145 212 229 187 79 41 74 171 160 101 85 76 53 33 53 74 84 76 80 96 137 136 106 100 102 81 80
43 46 7 27 66 13 -20 22 245 443 449 441 464 418 437 346 190 149 112 164 218 272 143 57 45 76 98 110 74 60 58 50 31 30 51 68 98 105 117 87 135 83 83 106 96 82 82
18 44 38 17 12 58 22 -40 52 451 438 460 502 428 330 251 96 144 230 235 177 185 206 307 195 119 116 90 96 59 53 60 66 93 88 104 80 131 143 159 171 209 143 154 145 89 92
53 181 356 178 67 87 104 46 215 737 588 489 649 429 359 294 112 247 284 321 483 503 376 210 106 153 123 91 75 87 64 95 90 87 133 119 105 114 117 133 163 89 87 147 86 131 127
264 453 429 362 310 274 264 325 449 456 540 490 759 668 471 389 357 405 439 479 374 184 306 111 154 88 109 75 70 100 119 62 126 132 130 92 145 153 131 155 147 133 112 145 164 127 113
375 518 465 420 432 448 488 439 370 384 372 503 793 662 394 529 489 495 405 221 150 11 50 6 112 80 96 86 111 105 108 125 77 131 116 162 173 200 180 181 96 106 193 224 161 131 118